Погода в Туфи

Папуа-Новая Гвинея     9°04′47″S   149°18′59″E
темп.,
°C
ветер,
м/с
пор.,
м/с
влажн.,
%
обл.,
%
осадки,
мм/ч
давл.,
гПа
погр.,
м
28 октября, чт
чт2801:00+27ююв348010 1.3 1011331
04:00+27ююв458170 2.3 1011424
07:00+27ююв557926 1.5 1012526
10:00+28юв457485 2.6 1013659
13:00+28вюв447514 1.6 1010550
16:00+28всв557399 2.3 1009662
19:00+28в4476100 0.3 1011634
22:00+27ююв447916 0.9 1012407
29 октября, пт
пт2901:00+27ю32796 1.1 1010339
04:00+27ю117721 1.1 1010355
07:00+27зсз01765 0.0 1012406
10:00+28с227537 0.0 1013570
13:00+28ссв337592 0.1 1010582
16:00+28св437596 0.2 1009566
19:00+28в337640 0.0 1011527
22:00+28вюв2376100 0.0 1012552
30 октября, сб
сб3001:00+28вюв127792 0.1 1010489
04:00+27в117897 1.3 1010106
07:00+27вюв227882 0.8 1013346
10:00+28св2273100 1.0 1013640
13:00+28св327273 0.2 1010595
16:00+29всв44716 0.2 1009593
19:00+28в44761 0.0 1011596
22:00+28вюв34767 0.4 1012578
31 октября, вс
вс3101:00+27юв227722 1.9 1010436
04:00+27ююз227985 2.4 1010238
07:00+27ю2277100 3.1 1012107
10:00+28юв227560 4.1 1012404
13:00+28всв337147 0.4 1010510
16:00+29в4570100 0.6 1009677
19:00+28вюв567994 0.6 1011552
22:00+28юв4477100 1.9 1012609
1 ноября, пн
пн101:00+27ю4479100 0.5 1010335
04:00+27ююв4479100 1.3 1010354
07:00+28юв447789 0.8 1012486
10:00+28юв347416 1.3 1013507
13:00+28в447292 0.6 1011506
16:00+29в6670100 0.6 1009957
19:00+28вюв5675100 0.1 1011708
22:00+27юв457997 0.6 1012478